User: anonymous   Login
Location: Brno
(49.2000°N, 16.6330°E)
Time: 21:36:19
(UTC+02:00)
Language:

Cosmos 332 Rocket - Orbit

View from above orbital plane
View from above orbital plane
View from above satellite
View from above satellite

Ground track
Ground track

The orbit data is extracted from the following two-line orbital elements,

1 04370U 70028B   16144.89345944  .00000165  00000-0  40770-4 0  9997
2 04370  74.0387 111.6601 0014683 132.4515 227.7895 14.59760436955176
Epoch (UTC): 23 May 2016 21:26:34
Eccentricity: 0.0014683
inclination: 74.0387°
perigee height: 683 km
apogee height: 704 km
right ascension of ascending node: 111.6601°
argument of perigee: 132.4515°
revolutions per day: 14.59760436
mean anomaly at epoch: 227.7895°
orbit number at epoch: 95517

The dashed part of the orbit path shows where the satellite is in the earth's shadow,  

DLR